Regional Weather Roundup
Issued by NWS

Home | Current Version | Previous Version | Text Only | Print | Product List | Glossary On
Versions: 1 2 3 4 5 6 7 8 9 10 11 12 13 14 15 16 17 18 19 20 21 22 23 24 25 26 27 28 29 30 31 32 33 34 35 36 37 38 39 40 41 42 43 44 45 46 47 48 49 50
709
ASUS44 KLIX 061005
RWRLA
LOUISIANA WEATHER ROUNDUP
NATIONAL WEATHER SERVICE NEW ORLEANS LA
400 AM CST FRI MAR 06 2015

NOTE: "FAIR" INDICATES FEW OR NO CLOUDS BELOW 12,000 FEET WITH NO
      SIGNIFICANT WEATHER AND/OR OBSTRUCTIONS TO VISIBILITY.
      SKY/WX - SKY CONDITION AND SIGNIFICANT WEATHER.
      TMP - AIR TEMPERATURE.    DP   - DEWPOINT TEMPERATURE.
      RH  - RELATIVE HUMIDITY.  PRES - PRESSURE.
      HX  - HEAT INDEX.         WCI  - WIND CHILL INDEX.

*  THESE STATIONS ARE NOT NWS OR FAA STATIONS AND ARE NOT UNDER
   NWS QUALITY CONTROL.

LAZ040-048-061>063-065-066-069-061100-
SOUTHEAST LOUISIANA

CITY           SKY/WX    TMP DP  RH WIND       PRES   REMARKS
N.O. AUDUBON     N/A     33  26  75 MISG        N/A
N.O. INTL ARPT PTCLDY    32  23  69 N21       30.43F WCI  20
N.O. LAKEFRONT PTCLDY    35  25  66 N22       30.44F WCI  23
SLIDELL        CLEAR     30  22  72 N14       30.43S WCI  19
BATON ROUGE    CLEAR     27  16  63 N8        30.49S WCI  19
BOOTHVILLE     CLEAR     38  30  73 N10G23    30.38R WCI  31
BELLE CHASSE   PTCLDY    33  22  63 N10       30.42R WCI  25
BOGALUSA*        N/A     30  23  75 N12       30.46F WCI  20
GALLIANO*      SUNNY     36  27  72 N9G18     30.41S WCI  29
NEW ROADS*     FAIR      27  13  54 N10       30.51S WCI  18
GONZALES*      FAIR      29  19  64 N7        30.47S WCI  22
HAMMOND*       PTCLDY    28  19  69 N8        30.48S WCI  20
HOUMA*         CLEAR     30  24  76 N9        30.43S WCI  22
PORT FOURCHON* SUNNY     36  27  69 N20       30.43S WCI  25

$$

LAZ041-044-053-054-061100-
SOUTHWEST LOUISIANA

CITY           SKY/WX    TMP DP  RH WIND       PRES   REMARKS
LAKE CHARLES   CLEAR     31  18  58 N13       30.52S WCI  21
LAFAYETTE      PTCLDY    30  16  56 N9        30.50R WCI  22
PATTERSON      PTCLDY    30  19  64 N15       30.46R WCI  19
SALT POINT       N/A     31  20  63 N8        30.44S WCI  23
NEW IBERIA     NOT AVBL
CHENAULT AIRPK NOT AVBL

$$

LAZ027-028-061100-
CENTRAL LOUISIANA

CITY           SKY/WX    TMP DP  RH WIND       PRES   REMARKS
FORT POLK      CLEAR     27  18  68 N6        30.52S WCI  20
ALEXANDRIA INT CLEAR     26  19  74 N5        30.54R WCI  20
ALEXANDRIA     CLEAR     28  17  63 CALM      30.54R

$$

LAZ001-002-061100-
NORTHWEST LOUISIANA

CITY           SKY/WX    TMP DP  RH WIND       PRES   REMARKS
SHREVEPORT     PTCLDY    27  20  75 N5        30.57S WCI  22
BARKSDALE AFB  CLEAR     25  23  89 CALM      30.57F
DTN SHREVEPORT CLEAR     27  23  85 N3        30.58S

$$

LAZ014-016-061100-
NORTHEAST LOUISIANA

CITY           SKY/WX    TMP DP  RH WIND       PRES   REMARKS
MONROE         CLEAR     24  18  77 N5        30.57F WCI  18
TALLULAH       CLEAR     26  16  65 N10       30.55F WCI  16

$$




USA.gov is the U.S. government's official web portal to all federal, state and local government web resources and services.